Epoch 2008 Nov. 30.0 TT = JDT 2454800.5
T 2008 Dec. 19.96098 TT                                 MPC
q   0.5348106            (2000.0)            P               Q
n   0.17403416     Peri.  345.76428     +0.17564998     -0.96842040
a   3.1772133      Node    93.89279     +0.91967919     +0.09730070
e   0.8316730      Incl.   10.21560     +0.35119407     +0.22955284
P   5.66
Residuals in seconds of arc
K035Q  703 (4.8+  0.3+)   K035S  340  1.6-  1.9+    K0362  340  0.7-  1.4+
K035Q  703 (4.7+  0.5+)   K035S  340  1.6+  1.4+    K0362  340  0.2+  0.1-
K035Q  703 (3.3+  0.1-)   K035S  340 (1.2+  2.0+)   K0362  340 (0.5-  2.4-)
K035Q  703 (6.0+  2.1-)   K035S  340 (3.0+  1.5+)   K0362  372  1.7-  0.7+
K035Q  938  0.2-  1.2-    K035S  340  0.1+  0.4-    K0362  340  0.9+  1.1+
K035Q  938  0.9-  0.3+    K035S  340 (1.1-  2.1+)   K0362  372  1.4-  0.2-
K035Q  938  1.4+  0.2-    K035S  367  0.3+  0.0     K0362  620  0.6-  0.1+
K035Q  938  0.6-  0.0     K035S  367  0.6-  0.1-    K0362  620  0.6-  0.4+
K035Q  938  0.6+  0.8-    K035S  367  1.4+  1.0-    K0362  620  0.0   0.3-
K035Q  938  0.5-  0.6+    K035S  367  0.5-  0.0     K0363  H72  0.5-  0.5-
K035Q  938  0.3-  0.5-    K035S  620  0.2+  0.1+    K0363  H72  0.6+  0.2+
K035Q  938  1.2+  0.5+    K035S  620  0.4+  0.3+    K0363  H41  1.2-  0.4+
K035Q  938  0.1+  0.5-    K035S  213  0.2+  0.7+    K0363  H72 (3.8+  0.6+)
K035Q  938 (2.0+  0.7-)   K035S  620  0.4-  0.1-    K0363  H41  0.7+  0.4+
K035Q  938  0.2+  0.2-    K035S  213  0.0   0.8+    K0363  H72 (1.6+  2.5+)
K035Q  938  1.8+  0.2+    K035S  620  0.2-  0.1-    K0363  H41  0.1-  0.6+
K035Q  938  0.4+  0.6+    K035S  166  0.7+  0.4+    K0363  H41  0.4-  0.9+
K035Q  938  0.4+  0.4+    K035S  166  0.5-  0.7+    K0363  H41  0.6-  1.0+
K035Q  938  0.4-  0.1+    K035S  213  0.3-  0.7+    K0363  118  0.4+  1.6-
K035Q  938  1.2+  0.0     K035S  166 (2.5-  1.2+)   K0363  118  1.3+  0.5-
K035Q  938  0.0   0.5+    K035S  A32 (0.5-  2.5+)   K0363  118  0.5-  0.6-
K035Q  938  1.4+  0.3+    K035S  A32  0.5+  0.5-    K0365  620  1.9-  0.5+
K035Q  938  0.5-  0.7+    K035T  H41  0.9+  0.3+    K0366  620  0.1+  0.3+
K035Q  938  0.5+  0.3-    K035T  H41  0.2+  0.1-    K0367  620  0.4-  0.4-
K035Q  938  1.3-  0.5+    K035T  H41 (3.4+  7.4-)   K0367  620  1.3-  0.1-
K035Q  938  1.1+  0.2-    K035T  750  0.1+  0.6-    K0367  620  1.6-  0.7+
K035Q  938  0.9-  0.3+    K035T  900  0.7-  0.7+    K0368  046 (0.3+  2.1+)
K035Q  938  1.5+  1.6-    K035T  900  0.6-  1.4+    K0368  046  1.6-  0.7+
K035Q  938  0.5+  0.2+    K035T  A46 (2.2+  0.8-)   K0368  046  0.5+  1.3+
K035Q  938  0.5-  0.6+    K035T  A46 (0.8+  2.1-)   K036A  620  0.8-  0.8-
K035Q  938  0.4-  0.2+    K035T  A46  0.0   0.7-    K036A  620  0.6-  0.0
K035Q  938  1.0+  0.2+    K035T  A46 (0.8+  2.4-)   K036A  620  0.4+  0.9-
K035Q  938  0.2+  1.1+    K035T  A46  1.0+  1.7-    K036A  204  1.3+  0.6-
K035R  734  0.3+  0.2+    K035T  118  0.4+  0.8+    K036A  204 (5.0+  6.2-)
K035R  750  0.8-  0.9-    K035T  A46  0.1-  1.0-    K036F  620  0.7+  0.7-
K035R  750 (2.4-  0.5-)   K035T  213  0.3-  0.8+    K036F  118 (4.9+  1.7-)
K035R  734  0.2-  0.1-    K035T  213  1.5-  0.6+    K036F  118  0.8-  0.9+
K035R  750  0.8-  0.6+    K035T  118  0.3-  1.4+    K036G  118  0.5+  1.1+
K035R  333  1.1+  0.6+    K035T  213 (2.8-  0.9+)   K036G  118  1.0-  0.3+
K035R  333  0.3-  0.7+    K035T  118  0.4+  0.0     K036G  118  1.2-  0.9+
K035R  333  1.1+  0.2-    K035T  A32  0.2+  1.2+    K036H  620  0.8-  0.8-
K035R  333  0.0   0.7+    K035T  A32  0.2-  1.0-    K036H  620  0.6-  1.9-
K035R  333  0.8+  0.2+    K035U  H72  0.9+  0.3-    K036H  620  0.4+  0.5-
K035R  333  1.1+  0.5-    K035U  H72 (3.2-  0.5-)   K036I  620  0.8-  1.0-
K035R  926  0.2-  0.5+    K035U  H41 (0.3+  2.0-)   K036J  H41 (2.1-  1.5+)
K035R  926  0.0   0.3-    K035U  H41  1.4-  0.4-    K036J  H41 (3.6-  0.3+)
K035R  926  0.0   0.0     K035U  H72  1.0+  0.1-    K036J  H41  0.7-  1.5+
K035R  699 (2.5+  1.4-)   K035U  673  1.5-  0.1-    K036K  360  0.5+  0.5-
K035R  673  0.0   0.6-    K035U  673  0.6-  0.3-    K036K  360  0.9+  1.4-
K035R  699 (2.8+  0.4-)   K035U  673  1.1-  0.1-    K036K  360  0.1+  1.1-
K035R  673  0.7-  0.5-    K035U  673  0.1-  0.3-    K036K  118 (2.4+  2.0-)
K035R  699 (2.2+  0.6-)   K035U  921 (1.6+  2.1+)   K036K  118 (2.1+  0.9-)
K035R  333  1.4+  0.4-    K035U  921 (1.2-  2.6+)   K036K  215  0.7+  1.2+
K035R  333 (3.6+  2.5-)   K035U  673  0.5-  0.5-    K036M  H41  1.1-  0.2+
K035R  673  0.0   0.6-    K035U  673  1.2-  0.3-    K036M  H41 (2.8-  0.8+)
K035R  333 (2.7+  4.1-)   K035U  673  0.9-  0.2-    K036M  H41  0.4-  0.2-
K035R  673  0.3-  0.3-    K035U  673  1.3-  0.5-    K036N  H41 (0.4+  3.1-)
K035R  333  1.5+  1.1-    K035U  587 (2.1-  2.2+)   K036N  H41  1.4+  0.4-
K035R  333  1.5+  0.3-    K035U  587 (1.5+  3.2-)   K036N  H41  1.1+  1.6-
K035R  333  0.2-  1.2-    K035U  587  1.7-  0.2-    K036O  H41  0.3+  1.0+
K035R  699 (2.8+  1.3-)   K035U  232 (2.1+  1.5-)   K036O  H41 (2.5+  0.2+)
K035R  333  0.7+  0.4-    K035U  232 (1.9-  2.8+)   K036O  H41  0.9+  0.4-
K035R  333  1.6+  0.2-    K035U  J87 (1.7-  2.1+)   K036P  H41  1.8+  1.8+
K035R  673  0.4-  0.3-    K035U  J87  0.2-  0.2-    K036P  H41 (2.2-  1.4-)
K035R  703 (0.9+  2.0-)   K035U  J87  0.5+  0.3-    K036S  H41  0.8+  0.1+
K035R  734  1.8+  0.4-    K035U  J87  0.5-  0.5-    K036S  H41  0.1+  0.6+
K035R  854  0.5+  0.1-    K035V  H72  0.4-  0.3-    K036S  H41 (2.0+  1.7+)
K035R  734 (2.7+  0.3+)   K035V  H72  1.4+  0.3+    K036T  H41  0.2+  1.5-
K035R  703 (2.5+  0.3+)   K035V  H72 (0.9+  2.5+)   K036T  H41  0.6+  1.1-
K035R  333  1.7+  0.1-    K035V  H72 (4.3-  3.3+)   K036T  H41  0.8+  0.4+
K035R  703 (2.8+  0.3-)   K035V  H41 (0.6-  2.5+)   K0372  H41 (3.8+  3.9-)
K035R  333  0.0   1.0-    K035V  H41  0.2-  1.1-    K0372  H41 (2.4+  4.2-)
K035R  333  1.9+  0.8+    K035V  H41  0.5-  1.2-    K08C8  C50  9.8- 14.1+ Y
K035R  670  0.7-  0.8+    K035V  H41  1.0-  0.1-    K08C8  C50  5.3- 11.8+ Y
K035R  333 (2.1+  0.2+)   K035V  H41  0.2+  0.3-    K08C8  C50 (6.6- 21.4-)Y
K035R  333  0.9+  0.3-    K035V  H41  0.5+  0.1+    K08C8  C50  6.7+  7.4+ Y
K035R  333 (2.9+  0.7-)   K035V  A01  0.9+  1.5-    K08C8  C50  3.4+ 13.4- Y
K035R  333  1.2+  0.3+    K035V  A01 (7.7-  0.0 )   K08C8  C50 14.8+  0.7+ Y
K035R  333 (0.4+  2.8-)   K0361  360  0.7-  0.6+    K08C8  C50(16.5- 21.5-)Y
K035R  673  0.1+  0.1+    K0361  360  0.9-  0.1+    K08C8  C50  4.1-  3.0- Y
K035R  703  1.0-  1.0+    K0361  367  0.8-  0.4+    K08C8  C50 15.4-  8.9+ Y
K035R  670  0.6-  0.9+    K0361  367  1.1-  0.7-    K08C8  C50 (5.6+ 33.6-)Y
K035R  673  0.1-  0.2-    K0361  360  0.9-  0.0     K08C9  C50  4.9-  3.0- Y
K035R  673  0.2+  0.1-    K0361  900 (2.1-  1.7-)   K08C9  C50(35.0- 10.9-)Y
K035R  673  0.0   0.2+    K0361  367  0.5-  0.3-    K08C9  C50  1.7+  2.2- Y
K035R  176  0.7+  0.4+    K0361  367  1.2-  0.6+    K08C9  C50 11.2+ 16.8+ Y
K035R  176  0.5+  0.3+    K0361  372  1.9-  1.0-    K08C9  C50  4.0+ 16.9- Y
K035R  176  0.3+  0.2+    K0361  349 (2.2-  0.3+)   K08C9  C50 17.0- 10.0+ Y
K035R  176  0.1+  0.1+    K0361  900  0.4+  0.1-    K08C9  C50(44.4-  1.4+)Y
K035R  176  0.1-  0.0     K0361  349  1.7-  0.1+    K08C9  C50 18.3+  0.6- Y
K035S  H41  0.7-  1.2+    K0361  349  1.4-  0.7-    K08C9  C50 (6.3- 25.9+)Y
K035S  H41  0.4-  0.0     K0362  H72  1.7+  1.0-    K08C9  C50 11.6+ 11.9- Y
K035S  H41  0.2-  1.1-    K0362  H72  1.0-  0.8-    K08C9  C50  4.4- 11.3- Y
K035S  673  0.4+  0.2-    K0362  H72  1.1-  0.5+    K08C9  C50  2.4-  2.9+ Y
K035S  673  0.6-  0.4+    K0362  H72  1.0+  0.9+    K08C9  C50(29.2+ 19.7+)Y
K035S  673  0.1-  0.4+    K0362  703  0.5+  1.5+    K08C9  C50 10.7-  4.0+ Y
K035S  673 (2.0-  0.2+)   K0362  703  1.9+  0.6+    K08C9  C50 (0.6+ 25.0-)Y
K035S  673  0.5-  0.1+    K0362  703  0.5+  0.5+    K08C9  C50  3.2-  3.6- Y
K035S  673  0.1-  0.2+    K0362  703  1.2+  0.1-    K08C9  C50  6.7+ 11.6- Y

    P/2003 K2 = 2008 X4 (Christensen)
Date    TT    R. A. (2000) Decl.     Delta      r     Elong.  Phase   m1    m2
2008 08 12    20 17.85   -30 59.5    1.141    2.112   157.3    10.7  17.0
2008 08 22    19 55.75   -32 30.8    1.092    2.000   143.8    17.4  16.7
2008 09 01    19 34.84   -33 32.2    1.068    1.884   130.2    24.2  16.4
2008 09 11    19 17.54   -34 03.7    1.060    1.764   117.2    30.5  16.1
2008 09 21    19 05.32   -34 12.3    1.060    1.639   105.1    36.2  15.8
2008 10 01    18 58.69   -34 06.0    1.060    1.510    94.2    41.4  15.4
2008 10 11    18 57.46   -33 51.0    1.053    1.377    84.3    46.2  15.0
2008 10 21    19 01.00   -33 30.4    1.032    1.239    75.3    51.0  14.5
2008 10 31    19 08.48   -33 04.8    0.993    1.098    67.1    56.4  13.9
2008 11 10    19 18.73   -32 32.5    0.929    0.953    59.5    63.5  13.1
2008 11 20    19 29.52   -31 51.0    0.837    0.811    51.9    73.7  12.2
2008 11 30    19 35.83   -30 55.2    0.716    0.678    43.4    90.0  11.1

